Location: Herksen
(52.4316°N, 6.1319°E)
Time: 20:47:11
(UTC+00:00)

CZ-4C R/B - Pass Details

Date: 15 May 2026
Orbit: 409 x 496 km, 98.0° (Epoch: 7 June)

Event Time Altitude Azimuth Distance (km) Brightness Sun altitude
Rises 23:37:15 0° 24° (NNE) 2,454 7.9 -18.5°
Reaches altitude 10° 23:39:30 10° 38° (NE) 1,594 6.5 -18.5°
Maximum altitude 23:42:25 26° 96° (E) 953 4.5 -18.5°
Enters shadow 23:42:57 25° 113° (ESE) 985 4.4 -18.5°
